Hourly Weather Roundup
Issued by NWS Central Illinois

Home | Current Version | Previous Version | Text Only | Print | Product List | Glossary On
Versions: 1 2 3 4 5 6 7 8 9 10 11 12 13 14 15 16 17 18 19 20 21 22 23 24 25 26 27 28 29 30 31 32 33 34 35 36 37 38 39 40 41 42 43 44 45 46 47 48 49 50
000
NZUS43 KILX 030210
HWRILX
AREA WEATHER ROUNDUP
NATIONAL WEATHER SERVICE, LINCOLN IL
900 PM CDT TUE JUN 02 2015


CITY           SKY/WX    TMP DP  RH WIND       PRES   REMARKS
BLOOMINGTON    PTCLDY    66  55  67 E5        30.07S
CHAMPAIGN      PTCLDY    63  55  75 E8        30.06S
DANVILLE       CLEAR     63  54  73 E9        30.06S
DECATUR        PTCLDY    65  57  75 CALM      30.05S
EFFINGHAM      PTCLDY    63  56  80 CALM      30.07S
FLORA          CLEAR     60  57  89 SW5       30.07S
GALESBURG      MOCLDY    65  52  61 SE3       30.04F
JACKSONVILLE   PTCLDY    69  58  69 CALM      30.04S
LACON          PTCLDY    62  52  71 CALM      30.05S
LAWRENCEVILLE  CLEAR     64  58  80 W5        30.06S
LITCHFIELD     PTCLDY    63  57  82 SE5       30.06S
$$


CITY           SKY/WX    TMP DP  RH WIND       PRES   REMARKS
LINCOLN        PTCLDY    66  58  73 CALM      30.03R
MACOMB         PTCLDY    64  56  73 SE3       30.06S
MATTOON        PTCLDY    64  58  80 CALM      30.05S
MT CARMEL AP   CLEAR     64  59  82 CALM      30.06S
OLNEY-NOBLE AP CLEAR     61  57  88 CALM      30.06S
PARIS          CLEAR     65  55  71 NE6       30.07S
PEORIA         PTCLDY    67  53  61 E3        30.05S
PONTIAC        PTCLDY    64  56  76 E6        30.07S
RANTOUL        CLEAR     66  55  66 E7        30.07S
ROBINSON       CLEAR     65  59  81 CALM      30.06S
SPRINGFIELD    PTCLDY    67  58  72 SE3       30.04F
TAYLORVILLE    CLEAR     63  57  82 S3        30.05S
$$

...REGIONAL REPORTS...


CITY           SKY/WX    TMP DP  RH WIND       PRES   REMARKS
CHICAGO O`HARE MOCLDY    59  44  57 E9        30.09R
KANKAKEE       PTCLDY    62  55  76 CALM      30.09R
MOLINE         MOCLDY    64  54  69 SE6       30.02F
MOUNT VERNON   CLOUDY    63  54  72 SE3       30.08F
PITTSFIELD     PTCLDY    66  58  76 CALM      30.04F
QUINCY         PTCLDY    65  56  72 CALM      30.02F
ROCKFORD       MOCLDY    65  45  48 SE6       30.06F
$$


CITY           SKY/WX    TMP DP  RH WIND       PRES   REMARKS
BURLINGTON     CLEAR     64  55  72 SE3       30.02F
CEDAR RAPIDS   PTCLDY    63  55  75 S7        30.01S
DES MOINES     MOCLDY    68  55  63 S10       29.97S
KIRKSVILLE     PTCLDY    62  57  83 SE7       30.02F
OTTUMWA        PTCLDY    61  56  83 SE6       30.00F
ST LOUIS       MOCLDY    67  56  67 E8        30.05S
$$


CITY           SKY/WX    TMP DP  RH WIND       PRES   REMARKS
TERRE HAUTE    CLEAR     64  56  75 E8        30.07R
EVANSVILLE     CLEAR     60  56  86 CALM      30.06F
INDIANAPOLIS   PTCLDY    60  50  69 E8        30.09S
LAFAYETTE      CLEAR     58  51  78 E5        30.09S
MADISON        PTCLDY    67  45  45 S7        30.04S
MILWAUKEE      MOCLDY    52  44  74 SE6       30.09S
$$





USA.gov is the U.S. government's official web portal to all federal, state and local government web resources and services.